Probability
0 0 0 0 0 0 0 0 0 0 0 0 3 3 6 10 6 10 13 19 23 19 16 13 26 26 23 23 23 23 19 19 19 23 23 19 16 16 13 13 19 16 10 13
0 0 0 0 0 0 0 0 0 0 0 0 3 3 6 6 6 10 16 19 23 19 23 23 26 32 29 26 29 23 19 23 26 26 19 23 19 23 23 16 26 26 16 13
0 0 0 0 0 0 0 0 0 0 0 0 0 0 6 6 10 10 13 16 23 23 26 32 32 42 39 29 26 26 29 23 26 32 26 32 23 26 42 42 42 29 26 26
0 0 0 0 0 0 0 0 0 0 0 0 3 3 0 3 6 6 10 13 13 19 23 26 32 35 39 39 35 26 32 32 23 26 29 26 23 32 35 39 35 39 42 45
0 0 0 0 0 0 0 0 0 0 0 0 0 0 0 0 0 6 6 13 19 16 23 29 32 39 39 39 35 42 35 39 39 35 35 35 32 29 29 42 39 45 39 35
0 0 0 0 0 0 0 0 0 0 0 0 0 0 0 0 0 10 13 13 13 23 23 23 29 39 42 45 42 42 42 42 45 45 42 35 32 29 45 48 42 42 45 42
0 0 0 0 0 0 0 0 0 0 0 0 0 0 0 0 3 6 16 16 19 19 16 19 26 32 39 45 45 42 39 45 42 48 52 45 42 45 48 55 42 45 48 45
0 0 0 0 0 0 0 0 0 0 0 0 0 3 3 6 6 10 16 16 16 13 19 23 26 26 35 45 48 45 35 39 45 55 52 48 48 52 48 55 55 45 45 42
0 0 0 0 0 0 0 0 0 0 0 0 0 3 10 13 10 10 16 19 19 16 26 32 29 26 35 45 48 45 42 42 42 52 52 55 52 48 48 52 55 45 45 42
0 0 0 0 0 0 0 0 0 0 0 0 0 0 13 13 13 13 19 23 19 19 29 29 32 32 32 45 45 55 48 45 48 48 52 58 55 52 52 48 48 45 45 42
0 0 0 0 0 0 0 0 0 0 0 0 0 3 3 13 13 19 19 19 19 19 23 29 26 29 29 32 48 48 55 55 58 58 61 61 55 58 55 55 42 45 42 45
0 0 0 0 0 0 0 0 0 0 0 0 0 3 3 6 10 16 16 19 26 29 29 23 32 39 39 39 42 48 58 61 61 61 61 52 52 58 65 58 52 52 42 39
0 0 0 0 0 0 0 0 0 0 0 0 0 3 6 6 13 19 23 26 23 19 19 19 29 35 39 35 39 45 55 61 58 58 61 58 48 55 58 55 48 42 42 45
0 0 0 0 0 0 0 0 0 0 0 0 0 3 3 10 10 19 19 19 13 19 29 26 26 26 29 32 39 45 55 55 52 55 55 58 58 58 55 52 45 48 45 48
0 0 0 0 0 0 0 0 0 0 0 0 0 3 3 3 10 13 13 10 13 16 26 19 26 29 26 29 35 39 45 45 48 48 52 52 52 48 45 52 45 42 42 45
0 0 0 0 0 0 0 0 0 0 0 0 0 3 3 3 10 16 16 19 16 19 29 23 26 23 26 32 32 32 35 42 39 45 42 48 48 45 45 48 42 39 35 42
0 0 0 0 0 0 0 0 0 0 0 0 3 3 10 10 16 16 19 23 19 19 19 19 19 26 26 26 29 29 26 35 35 39 39 39 39 45 48 42 42 39 35 39
0 0 0 0 0 0 0 0 0 0 0 0 3 10 13 16 19 19 26 19 23 19 23 23 23 26 26 26 29 29 29 29 26 26 26 35 35 39 45 42 39 39 35 32
0 0 0 0 0 0 0 0 0 3 0 3 10 16 10 13 13 19 23 19 19 26 23 26 23 23 26 26 26 26 29 29 29 26 29 29 29 35 42 45 39 32 29 29
0 0 0 0 0 0 0 0 3 3 3 3 6 13 10 10 10 16 13 13 19 19 16 19 19 19 26 23 23 19 19 23 19 16 19 23 29 29 29 35 26 23 23 29
0 0 0 0 0 0 0 0 0 3 3 3 10 10 10 10 10 10 6 10 16 16 16 16 16 19 19 23 19 23 23 23 23 23 19 19 23 26 23 23 23 19 19 19
0 0 0 0 0 0 0 0 0 0 0 0 6 10 6 10 6 6 13 10 16 13 13 16 16 16 19 23 19 19 23 19 19 19 19 19 16 19 19 23 23 23 16 16
0 0 0 0 0 0 0 0 0 0 0 0 0 3 10 10 6 10 10 10 10 13 10 13 13 16 16 19 23 23 16 19 16 19 13 13 13 13 16 19 23 23 19 19
0 0 0 0 0 0 0 0 0 0 0 0 3 6 10 6 10 10 6 10 10 13 13 13 13 16 10 10 13 16 16 19 16 16 13 10 10 6 6 6 10 10 19 19
0 0 0 0 0 0 0 0 0 0 0 0 3 6 6 10 6 10 6 6 10 6 10 10 13 13 16 16 13 10 16 13 13 13 16 13 3 3 3 3 3 3 6 10
0 0 0 0 0 0 0 0 0 0 0 0 3 3 3 6 6 6 6 10 6 6 6 6 10 6 13 13 13 13 6 6 10 10 13 10 3 3 3 0 0 0 0 0
Height
5910 5912 5912 5913 5914 5915 5915 5916 5916 5917 5917 5918 5918 5918 5919 5918 5918 5917 5916 5915 5914 5913 5913 5912 5911 5911 5910 5910 5909 5909 5908 5908 5908 5909 5909 5910 5910 5911 5911 5912 5912 5912 5912 5912
5908 5909 5910 5910 5911 5912 5913 5914 5914 5915 5915 5916 5916 5916 5917 5916 5916 5916 5915 5915 5914 5913 5913 5912 5911 5910 5910 5910 5909 5909 5909 5909 5909 5909 5909 5910 5910 5911 5911 5911 5912 5912 5912 5912
5905 5908 5907 5907 5908 5909 5910 5911 5911 5912 5913 5913 5914 5914 5914 5914 5914 5914 5914 5913 5913 5912 5912 5912 5911 5910 5910 5909 5909 5909 5909 5909 5909 5909 5909 5909 5910 5910 5911 5911 5911 5911 5911 5911
5902 5904 5904 5904 5905 5906 5907 5909 5909 5910 5910 5911 5911 5911 5912 5911 5912 5912 5912 5912 5911 5911 5911 5911 5910 5909 5909 5909 5909 5909 5909 5909 5908 5909 5909 5909 5909 5910 5910 5910 5910 5910 5910 5910
5899 5901 5901 5902 5903 5903 5904 5906 5906 5907 5907 5908 5908 5908 5909 5908 5909 5910 5910 5910 5909 5909 5909 5909 5909 5909 5909 5908 5908 5908 5908 5908 5908 5908 5908 5909 5909 5908 5908 5908 5908 5908 5908 5908
5895 5897 5898 5898 5899 5900 5901 5902 5903 5903 5904 5905 5905 5905 5905 5905 5906 5907 5907 5906 5906 5906 5906 5907 5907 5907 5907 5907 5907 5907 5907 5907 5907 5907 5907 5907 5907 5907 5907 5907 5907 5907 5906 5906
5892 5893 5894 5895 5896 5897 5898 5899 5899 5900 5900 5901 5902 5901 5903 5902 5903 5903 5903 5903 5903 5903 5903 5904 5904 5905 5905 5905 5905 5905 5905 5905 5905 5905 5905 5905 5905 5905 5905 5905 5905 5904 5904 5904
5887 5889 5890 5891 5892 5893 5893 5894 5895 5896 5896 5897 5897 5897 5899 5899 5899 5899 5900 5900 5900 5900 5900 5901 5901 5902 5902 5902 5903 5903 5903 5903 5902 5902 5902 5902 5903 5903 5903 5902 5902 5902 5901 5901
5882 5885 5886 5887 5888 5889 5889 5890 5891 5891 5891 5892 5892 5894 5894 5895 5895 5895 5896 5896 5896 5897 5897 5898 5898 5898 5899 5899 5899 5899 5899 5899 5899 5899 5899 5899 5899 5899 5899 5899 5898 5898 5898 5897
5878 5880 5882 5883 5884 5885 5886 5887 5887 5887 5887 5887 5887 5889 5890 5891 5891 5891 5892 5892 5893 5893 5894 5894 5895 5895 5895 5895 5895 5895 5895 5895 5895 5895 5896 5896 5895 5895 5895 5895 5894 5894 5893 5893
5873 5876 5878 5879 5879 5880 5881 5882 5882 5882 5883 5883 5882 5886 5886 5886 5886 5887 5888 5888 5889 5889 5889 5890 5890 5891 5891 5891 5891 5891 5891 5891 5891 5891 5891 5891 5891 5890 5890 5890 5889 5889 5888 5888
5869 5871 5872 5874 5875 5875 5876 5877 5877 5878 5878 5878 5877 5881 5881 5881 5881 5882 5883 5883 5883 5884 5884 5884 5885 5885 5886 5886 5886 5886 5886 5886 5886 5886 5886 5885 5885 5885 5885 5884 5884 5883 5883 5882
5864 5865 5867 5869 5872 5871 5871 5871 5871 5872 5872 5872 5872 5875 5875 5874 5875 5876 5877 5877 5877 5878 5878 5879 5879 5880 5880 5880 5880 5881 5881 5881 5880 5880 5880 5879 5878 5878 5879 5878 5878 5877 5877 5876
5858 5859 5861 5863 5863 5864 5865 5866 5866 5866 5866 5866 5866 5867 5868 5869 5869 5870 5871 5871 5871 5872 5872 5873 5873 5873 5874 5874 5874 5875 5875 5874 5874 5873 5873 5873 5872 5872 5872 5871 5871 5871 5870 5870
5852 5853 5854 5855 5856 5857 5858 5859 5860 5860 5859 5859 5860 5860 5861 5862 5863 5864 5864 5864 5865 5865 5865 5866 5866 5866 5867 5867 5867 5867 5868 5868 5867 5866 5866 5865 5865 5864 5864 5864 5863 5863 5863 5862
5845 5846 5847 5848 5848 5849 5851 5853 5853 5853 5853 5852 5852 5853 5855 5855 5856 5857 5857 5857 5858 5858 5859 5859 5859 5859 5858 5859 5859 5859 5859 5859 5858 5858 5857 5857 5857 5857 5856 5856 5856 5855 5855 5854
5837 5838 5839 5840 5840 5841 5843 5845 5845 5844 5844 5845 5845 5846 5847 5848 5849 5849 5849 5850 5850 5850 5850 5851 5851 5850 5849 5849 5850 5850 5850 5849 5848 5848 5848 5848 5848 5848 5848 5847 5847 5846 5846 5846
5828 5829 5830 5831 5833 5833 5838 5836 5836 5836 5836 5836 5837 5838 5838 5839 5840 5841 5841 5842 5842 5842 5841 5841 5842 5841 5841 5840 5840 5839 5839 5839 5838 5838 5838 5837 5837 5837 5837 5837 5838 5837 5837 5837
5819 5820 5820 5821 5822 5824 5827 5828 5827 5827 5827 5828 5829 5829 5830 5831 5831 5832 5833 5833 5833 5833 5832 5832 5832 5832 5832 5831 5831 5830 5829 5828 5827 5827 5827 5826 5826 5827 5827 5828 5828 5827 5827 5826
5810 5810 5811 5811 5812 5814 5819 5818 5818 5819 5818 5820 5820 5821 5822 5822 5823 5824 5823 5823 5823 5823 5822 5822 5822 5822 5822 5821 5821 5820 5819 5818 5817 5817 5817 5816 5817 5817 5818 5818 5818 5817 5816 5815
5801 5801 5801 5802 5802 5804 5807 5808 5809 5810 5810 5811 5812 5812 5813 5813 5814 5814 5813 5813 5813 5812 5812 5811 5811 5811 5811 5811 5810 5810 5809 5808 5808 5808 5807 5807 5807 5806 5807 5807 5807 5807 5807 5806
5791 5791 5792 5792 5793 5796 5796 5797 5798 5799 5800 5800 5801 5802 5803 5803 5803 5803 5803 5802 5802 5801 5801 5800 5800 5800 5800 5799 5799 5799 5799 5798 5798 5797 5797 5797 5797 5796 5795 5796 5797 5797 5797 5796
5781 5782 5782 5783 5785 5784 5785 5786 5786 5787 5788 5789 5790 5791 5791 5792 5792 5792 5792 5791 5790 5790 5789 5789 5788 5788 5788 5787 5788 5788 5788 5787 5787 5787 5787 5786 5786 5786 5786 5786 5786 5786 5785 5785
5771 5771 5771 5772 5773 5773 5774 5775 5775 5776 5777 5778 5778 5779 5780 5780 5779 5780 5780 5779 5778 5778 5777 5777 5776 5775 5775 5774 5775 5776 5776 5776 5776 5776 5775 5775 5775 5775 5774 5774 5775 5775 5775 5774
5761 5761 5761 5761 5763 5763 5763 5764 5765 5765 5766 5766 5767 5767 5767 5767 5767 5767 5767 5766 5766 5766 5766 5765 5763 5763 5763 5763 5764 5764 5764 5764 5764 5764 5764 5764 5764 5764 5764 5764 5764 5763 5763 5763
5751 5750 5750 5751 5752 5752 5753 5754 5754 5754 5754 5755 5755 5755 5755 5754 5754 5754 5753 5753 5753 5753 5753 5753 5753 5752 5752 5752 5753 5753 5753 5753 5753 5753 5753 5753 5753 5753 5753 5753 5753 5753 5752 5752
Wind_Speed
12 11 9 9 9 8 9 8 6 4 6 6 7 7 7 7 7 9 9 9 10 9 6 5 6 6 6 6 5 5 5 5 4 4 4 4 4 4 4 3 3 3 3 2
12 11 9 9 10 10 10 9 7 6 7 7 8 8 8 8 6 8 9 10 9 8 6 5 5 5 5 4 4 4 4 4 4 3 3 3 3 3 3 2 2 2 1 1
12 10 10 9 9 11 12 12 10 9 9 10 11 11 10 9 8 8 8 10 10 9 6 4 5 4 4 3 4 3 3 2 3 2 2 2 2 2 2 1 1 1 1 1
13 12 11 10 10 11 14 12 11 11 12 13 14 13 11 10 10 8 8 9 9 9 6 5 4 4 3 3 3 2 1 1 1 1 1 1 1 1 1 1 2 2 3 3
14 12 11 11 10 11 13 13 13 13 14 14 14 15 11 11 9 8 8 8 9 9 8 7 6 5 4 3 3 2 2 1 1 1 1 1 2 2 2 2 3 3 4 4
14 14 14 12 12 12 13 14 15 15 16 17 14 15 12 10 9 8 7 8 9 9 9 9 8 7 6 5 4 4 4 3 3 3 3 3 4 4 4 4 4 4 5 5
15 15 14 14 14 12 13 15 16 17 17 16 15 16 12 11 10 9 9 9 10 9 10 10 9 9 9 8 7 7 6 6 5 5 5 6 6 6 6 6 6 6 6 7
16 16 14 14 14 13 13 15 16 17 16 15 16 16 13 12 12 11 10 10 10 10 10 9 10 11 11 11 10 10 9 8 8 8 8 8 8 8 8 8 8 8 8 9
16 15 14 14 13 14 14 15 16 17 17 18 17 16 15 13 13 11 11 12 12 12 11 10 10 11 12 12 12 11 11 11 10 10 10 10 10 10 10 10 10 11 11 11
15 14 14 14 14 15 15 15 17 19 20 20 19 17 16 14 14 13 14 13 13 14 13 13 12 12 12 13 13 13 13 12 12 12 12 12 11 12 12 13 13 13 13 13
16 16 15 16 17 15 16 16 18 19 21 21 22 20 19 18 16 15 15 15 16 16 16 15 14 14 15 15 15 15 14 14 14 14 14 14 14 14 15 15 16 16 16 16
18 19 19 19 19 18 18 18 18 20 20 21 22 21 18 20 19 17 18 19 18 17 18 18 17 17 17 16 17 17 17 17 17 17 18 18 18 18 18 18 18 19 19 19
21 21 21 21 21 21 21 21 21 22 22 23 24 23 20 22 22 22 21 20 20 19 20 20 20 20 19 19 19 19 19 19 20 20 20 21 21 21 21 21 22 22 22 22
24 24 24 24 24 24 25 24 24 24 25 26 26 25 24 24 24 24 23 24 23 23 23 23 22 22 22 22 21 22 22 22 23 22 23 24 24 24 24 24 24 24 24 24
27 28 27 27 26 26 27 26 26 27 27 28 28 27 26 25 26 27 26 26 27 26 25 24 24 24 25 26 25 25 25 26 26 25 26 26 26 27 26 26 26 26 26 26
30 31 30 30 29 29 28 27 28 29 29 30 30 30 28 27 28 29 30 30 29 28 27 26 26 28 28 28 28 28 28 28 28 28 28 27 27 28 27 27 27 27 27 28
32 32 31 31 30 31 31 29 30 31 32 33 33 31 31 31 30 31 31 31 31 32 31 29 29 30 30 30 30 30 31 31 31 30 30 30 29 30 29 29 29 28 28 28
34 33 32 32 32 33 31 30 31 32 33 34 34 34 32 32 32 32 33 32 32 33 32 32 31 30 31 32 33 34 34 34 34 33 33 32 31 31 30 30 30 30 30 30
34 34 34 34 33 33 31 31 32 33 34 33 34 34 34 34 35 35 35 35 34 33 35 35 34 34 34 35 35 35 36 37 37 35 34 33 32 32 32 32 32 32 33 32
34 34 35 35 35 34 32 32 33 33 35 35 35 35 35 35 36 36 36 37 37 37 37 38 38 37 37 37 36 36 37 38 36 34 35 36 35 34 33 34 34 34 34 34
34 35 36 36 36 36 34 33 33 35 35 35 36 37 36 36 37 37 39 40 40 39 39 39 40 40 39 38 38 38 38 38 37 36 36 35 35 33 33 34 34 33 34 34
34 35 36 36 36 36 35 35 35 36 36 37 37 37 38 38 39 39 40 40 41 41 41 40 41 40 39 38 38 38 39 38 37 37 36 36 36 34 34 34 35 35 35 35
35 35 36 37 36 36 37 36 36 37 38 37 38 38 39 39 40 39 40 41 40 40 40 40 41 39 38 39 38 38 38 39 38 37 37 37 37 36 36 36 37 36 36 36
35 35 36 36 36 37 38 38 38 38 38 38 38 38 39 40 41 41 41 41 40 40 40 41 41 39 38 38 38 38 38 38 37 37 37 36 36 36 36 37 37 38 37 36
35 35 36 36 37 39 38 39 40 40 40 40 40 40 40 41 41 42 42 41 39 39 40 40 40 39 38 37 37 38 38 37 37 37 38 37 36 35 35 36 36 36 36 36
34 36 37 37 37 38 38 39 40 41 41 41 41 41 42 42 42 42 40 38 38 38 38 38 38 38 38 37 37 37 37 38 37 37 37 37 36 35 35 35 35 35 35 35
Wind_Direction
196 196 197 198 194 195 200 205 217 239 262 271 282 297 305 318 322 327 332 338 342 344 5 24 30 34 32 34 42 55 63 69 87 106 111 114 119 128 132 129 124 112 102 90
207 206 209 205 205 204 204 215 229 239 260 265 273 283 291 302 315 323 327 331 338 340 352 14 25 29 28 30 38 56 69 72 82 94 104 114 132 142 140 132 127 131 129 89
218 215 222 221 216 214 214 223 232 242 256 265 269 277 288 294 288 304 316 322 328 334 343 357 10 15 14 18 24 38 62 84 93 95 100 100 114 134 147 158 159 183 251 289
224 222 230 231 225 227 226 230 240 245 254 257 262 270 277 290 286 293 305 316 321 326 334 339 345 353 355 2 5 6 27 71 103 111 114 123 141 173 197 226 245 261 276 285
228 228 233 239 237 237 238 235 240 247 253 250 256 266 265 277 278 285 290 301 309 315 316 313 319 326 326 325 326 322 308 290 263 232 243 237 245 252 252 258 259 265 279 284
235 236 239 242 240 239 241 240 243 248 252 251 251 258 255 266 272 276 282 288 294 304 308 304 299 302 298 290 289 293 288 277 271 265 262 257 257 260 255 263 265 267 279 286
236 234 238 244 246 243 239 239 243 248 249 251 247 254 256 258 273 278 278 285 292 293 297 298 288 283 283 278 278 279 275 273 273 269 266 266 265 260 259 265 270 274 280 285
237 231 232 237 245 248 239 242 247 251 252 253 246 252 256 260 264 267 272 276 283 282 284 290 282 272 272 273 272 272 270 270 269 269 268 266 262 262 262 265 267 271 274 276
242 239 232 231 239 248 248 250 253 256 260 262 251 250 251 250 259 263 266 264 270 273 276 278 278 275 269 272 274 275 271 268 266 265 265 263 262 261 261 264 267 268 270 275
250 246 234 235 236 241 250 256 254 256 260 262 259 255 250 252 256 263 263 259 264 268 269 272 271 270 271 272 275 274 270 267 266 265 265 265 263 264 262 263 266 268 271 275
251 249 239 235 237 240 245 252 254 257 260 262 262 260 254 257 258 258 257 256 263 268 269 272 268 266 267 267 269 272 272 270 268 267 265 264 264 264 263 263 266 268 271 275
248 250 245 238 237 241 242 247 252 256 259 260 264 263 256 258 259 261 260 258 257 265 273 273 272 268 267 268 268 268 271 270 270 268 266 266 265 266 265 265 266 268 271 274
249 252 249 242 237 238 239 242 247 254 259 261 263 265 259 261 266 266 264 261 262 267 272 272 272 270 266 267 268 268 270 271 272 271 270 268 268 268 267 267 267 269 272 273
252 254 254 251 248 245 241 242 244 248 254 259 260 264 263 263 267 268 266 262 266 269 272 272 271 270 267 267 268 268 269 271 272 273 272 271 271 269 267 268 269 269 270 272
252 252 255 256 253 251 247 246 246 247 251 255 258 261 263 262 264 267 267 267 267 269 272 272 270 270 268 268 269 268 269 270 271 270 271 271 271 270 268 269 269 269 269 270
253 254 256 258 257 254 251 249 248 248 249 252 256 257 259 259 261 265 268 270 271 271 269 271 270 270 269 269 270 271 271 270 270 270 271 268 269 270 268 268 267 268 270 270
253 255 255 256 256 256 253 253 252 251 251 253 255 257 259 261 263 265 267 269 272 271 268 268 270 272 269 268 269 271 270 271 271 271 272 270 267 268 267 267 266 267 268 270
255 255 257 257 257 255 255 253 251 252 253 255 256 258 259 261 262 264 266 268 271 271 273 272 270 272 270 269 270 272 273 272 272 271 272 270 268 267 267 268 267 267 267 267
256 256 256 257 257 256 253 253 252 252 252 255 257 258 260 261 263 266 266 267 269 271 273 274 275 275 274 274 275 275 275 273 272 270 269 269 269 266 266 267 267 268 268 267
254 255 257 258 258 257 255 255 253 254 254 255 257 259 261 264 266 268 269 269 269 272 274 274 273 275 276 274 275 274 275 274 272 270 269 270 272 268 265 265 265 267 267 266
256 256 257 260 261 260 259 258 257 256 258 258 258 260 262 265 266 268 269 270 271 272 274 273 271 273 276 275 274 274 274 275 273 270 270 270 269 267 266 266 265 265 266 266
257 257 258 260 262 262 262 263 261 260 260 260 260 260 262 265 266 268 269 270 270 271 273 274 273 273 275 275 274 274 273 274 272 271 269 268 269 267 268 267 268 267 267 267
258 259 260 260 261 262 262 263 263 262 262 263 264 263 264 266 267 267 268 270 269 269 271 272 272 273 275 275 274 273 272 272 271 270 269 269 268 268 270 269 270 272 271 268
259 260 262 261 261 262 263 263 264 264 265 266 266 267 267 267 268 268 268 269 268 268 269 270 270 272 274 273 272 272 272 273 271 269 268 268 268 270 271 271 272 272 272 272
258 260 260 260 261 262 262 263 264 266 267 268 268 268 268 268 269 270 270 268 269 270 270 271 271 271 271 272 271 271 271 271 270 269 268 267 268 269 270 272 273 274 273 273
259 259 260 262 262 262 262 262 264 265 267 268 269 270 269 269 268 268 268 267 267 268 269 269 270 270 270 269 270 270 270 271 271 270 268 268 269 271 272 273 273 274 274 273